Location: Brachbach
(49.1847°N, 9.7240°E)
Time: 07:59:49
(UTC+00:00)

FO-29 - Pass Details

Date: 20 March 2026
Orbit: 801 x 1320 km, 98.5° (Epoch: 17 April)

Event Time Altitude Azimuth Distance (km) Brightness Sun altitude
Rises 19:55:35 0° 14° (NNE) 4,171 13.0 -23.0°
Reaches altitude 10° 19:58:11 10° 15° (NNE) 3,249 12.4 -23.3°
Maximum altitude 20:05:52 86° 104° (ESE) 1,321 10.0 -24.4°
Drops below altitude 10° 20:13:46 10° 195° (SSW) 3,334 12.1 -25.5°
Sets 20:16:27 0° 196° (SSW) 4,284 12.7 -25.9°
